Stirum, ND

11:07 AM CST on February 06, 2016 (GMT -0600)
Gwinner-melroe

Weather History for KGWR - December, 2012

Change the Weather History Date:

Tuesday, December 18, 2012

  Actual Average (KP67) Record (KP67)
Temperature  
Mean Temperature 24 °F -  
Max Temperature 32 °F 20 °F 41 °F (1997)
Min Temperature 15 °F 6 °F -2 °F (1996)
Degree Days  
Heating Degree Days 42    
Moisture  
Dew Point 26 °F    
Average Humidity 99    
Maximum Humidity 100    
Minimum Humidity 93    
Precipitation  
Precipitation 0.00 in - - ()
Sea Level Pressure  
Sea Level Pressure 29.63 in    
Wind  
Wind Speed 5 mph (SSE)    
Max Wind Speed 12 mph    
Max Gust Speed -    
Visibility 4 miles    
Events      
Averages and records for this station are not official NWS values.
T = Trace of Precipitation, MM = Missing Value Source: NWS Daily Summary

Daily Weather History Graph

Daily Weather History Graph

Search for Another Location

Airport or City:

Trip Planner

Search our weather history database for the weather conditions in past years. The results will help you decide how hot, cold, wet, or windy it might be!

Date:

Astronomy

Dec. 18, 2012 Rise Set
Actual Time 8:08 AM CST 4:46 PM CST
Civil Twilight 7:34 AM CST 5:20 PM CST
Nautical Twilight 6:55 AM CST 5:59 PM CST
Astronomical Twilight 6:19 AM CST 6:35 PM CST
Moon 11:31 AM CST (12/18) 11:33 PM CST (12/18)
Length of Visible Light 9h 46m
Length of Day
8h 37m
Waxing Crescent, 35% of the Moon is Illuminated
Dec 18
Waxing Crescent
Dec 19
First Quarter
Dec 28
Full
Jan 4
Last Quarter
Jan 11
New

Hourly Weather History & Observations

Time (CST) Temp. Windchill Dew Point Humidity Pressure Visibility Wind Dir Wind Speed Gust Speed Precip Events Conditions
12:15 AM 24.8 °F 15.3 °F 24.8 °F 100% 29.59 in 3.0 mi SE 9.2 mph - 0.00 in   Overcast
12:35 AM 24.8 °F 16.1 °F 24.8 °F 100% 29.59 in 3.0 mi SE 8.1 mph - 0.00 in   Overcast
12:55 AM 24.8 °F 16.1 °F 24.8 °F 100% 29.59 in 5.0 mi SE 8.1 mph - 0.00 in   Overcast
1:15 AM 24.8 °F 15.3 °F 24.8 °F 100% 29.58 in 3.0 mi SE 9.2 mph - 0.00 in   Overcast
1:35 AM 24.8 °F 15.3 °F 24.8 °F 100% 29.58 in 2.5 mi SE 9.2 mph - 0.00 in   Overcast
1:55 AM 24.8 °F 16.1 °F 23.0 °F 93% 29.58 in 2.5 mi ESE 8.1 mph - 0.00 in   Overcast
2:15 AM 23.0 °F 14.7 °F 23.0 °F 100% 29.58 in 2.5 mi SE 6.9 mph - 0.00 in   Overcast
2:35 AM 23.0 °F 14.7 °F 23.0 °F 100% 29.58 in 3.0 mi SE 6.9 mph - 0.00 in   Overcast
2:55 AM 23.0 °F 13.9 °F 23.0 °F 100% 29.58 in 2.5 mi ESE 8.1 mph - 0.00 in   Overcast
3:15 AM 24.8 °F 16.9 °F 23.0 °F 93% 29.58 in 2.5 mi ESE 6.9 mph - 0.00 in   Overcast
3:35 AM 24.8 °F 16.9 °F 23.0 °F 93% 29.58 in 2.5 mi ESE 6.9 mph - 0.00 in   Overcast
3:55 AM 24.8 °F 17.9 °F 23.0 °F 93% 29.58 in 1.2 mi SE 5.8 mph - 0.00 in   Overcast
4:15 AM 24.8 °F 17.9 °F 23.0 °F 93% 29.58 in 1.8 mi SE 5.8 mph - 0.00 in   Overcast
4:35 AM 24.8 °F 16.9 °F 24.8 °F 100% 29.57 in 0.5 mi ESE 6.9 mph - 0.00 in   Overcast
5:15 AM 24.8 °F 19.1 °F 24.8 °F 100% 29.58 in 0.2 mi ESE 4.6 mph - 0.00 in   Overcast
5:35 AM 24.8 °F 20.5 °F 24.8 °F 100% 29.58 in 0.5 mi East 3.5 mph - 0.00 in   Overcast
5:55 AM 24.8 °F - 24.8 °F 100% 29.59 in 0.5 mi Calm Calm - 0.00 in   Overcast
6:15 AM 24.8 °F 19.1 °F 24.8 °F 100% 29.59 in 0.5 mi ESE 4.6 mph - 0.00 in   Overcast
6:35 AM 24.8 °F 19.1 °F 24.8 °F 100% 29.60 in 0.5 mi ESE 4.6 mph - 0.00 in   Overcast
6:55 AM 24.8 °F 20.5 °F 24.8 °F 100% 29.59 in 0.5 mi ESE 3.5 mph - 0.00 in   Overcast
7:15 AM 24.8 °F 20.5 °F 24.8 °F 100% 29.59 in 0.5 mi ESE 3.5 mph - 0.00 in   Overcast
7:35 AM 26.6 °F 21.2 °F 26.6 °F 100% 29.59 in 0.5 mi ESE 4.6 mph - 0.00 in   Overcast
7:55 AM 26.6 °F - 26.6 °F 100% 29.60 in 0.2 mi Calm Calm - 0.00 in   Overcast
8:15 AM 26.6 °F 21.2 °F 26.6 °F 100% 29.59 in 0.2 mi ESE 4.6 mph - 0.00 in   Overcast
8:35 AM 26.6 °F 22.6 °F 26.6 °F 100% 29.61 in 0.2 mi ESE 3.5 mph - 0.00 in   Overcast
8:55 AM 26.6 °F - 26.6 °F 100% 29.61 in 0.2 mi Calm Calm - 0.00 in   Overcast
9:15 AM 26.6 °F - 26.6 °F 100% 29.61 in 0.2 mi Calm Calm - 0.00 in   Overcast
9:35 AM 26.6 °F - 26.6 °F 100% 29.62 in 0.5 mi Calm Calm - 0.00 in   Overcast
9:55 AM 26.6 °F 22.6 °F 26.6 °F 100% 29.63 in 0.8 mi SE 3.5 mph - 0.00 in   Overcast
10:15 AM 26.6 °F - 26.6 °F 100% 29.63 in 0.8 mi Calm Calm - 0.00 in   Overcast
10:35 AM 26.6 °F - 26.6 °F 100% 29.63 in 1.0 mi Calm Calm - 0.00 in   Overcast
10:55 AM 26.6 °F 22.6 °F 26.6 °F 100% 29.63 in 1.0 mi SE 3.5 mph - 0.00 in   Overcast
11:15 AM - - - N/A% 29.62 in 1.0 mi Calm Calm - 0.00 in   Overcast
11:35 AM 28.4 °F - 28.4 °F 100% 29.62 in 1.0 mi Calm Calm - 0.00 in   Overcast
11:55 AM 28.4 °F - 28.4 °F 100% 29.62 in 1.2 mi Calm Calm - 0.00 in   Overcast
12:15 PM 28.4 °F - 28.4 °F 100% 29.63 in 1.5 mi Calm Calm - 0.00 in   Overcast
12:35 PM 28.4 °F - 28.4 °F 100% 29.62 in 1.2 mi Calm Calm - 0.00 in   Overcast
12:55 PM 28.4 °F - 28.4 °F 100% 29.62 in 1.5 mi Calm Calm - 0.00 in   Overcast
1:15 PM 28.4 °F - 28.4 °F 100% 29.62 in 1.5 mi Calm Calm - 0.00 in   Overcast
1:35 PM 28.4 °F - 28.4 °F 100% 29.62 in 1.8 mi Calm Calm - 0.00 in   Overcast
1:55 PM 28.4 °F - 28.4 °F 100% 29.62 in 1.5 mi Calm Calm - 0.00 in   Overcast
2:15 PM 28.4 °F - 28.4 °F 100% 29.62 in 1.5 mi Calm Calm - 0.00 in   Overcast
2:35 PM - - - N/A% 29.62 in 1.2 mi Calm Calm - 0.00 in   Overcast
2:55 PM 30.2 °F - 30.2 °F 100% 29.62 in 2.0 mi Calm Calm - 0.00 in   Overcast
3:15 PM 30.2 °F - 30.2 °F 100% 29.62 in 3.0 mi Calm Calm - 0.00 in   Mostly Cloudy
3:35 PM 30.2 °F - 30.2 °F 100% 29.62 in 4.0 mi Calm Calm - 0.00 in   Mostly Cloudy
3:55 PM 30.2 °F - 30.2 °F 100% 29.63 in 4.0 mi Calm Calm - 0.00 in   Overcast
4:15 PM 30.2 °F - 30.2 °F 100% 29.63 in 4.0 mi Calm Calm - 0.00 in   Overcast
4:35 PM 30.2 °F - 30.2 °F 100% 29.63 in 3.0 mi Calm Calm - 0.00 in   Overcast
4:55 PM 30.2 °F - 30.2 °F 100% 29.64 in 4.0 mi Calm Calm - 0.00 in   Overcast
5:15 PM 30.2 °F - 30.2 °F 100% 29.64 in 5.0 mi Calm Calm - 0.00 in   Overcast
5:35 PM 30.2 °F - 30.2 °F 100% 29.64 in 5.0 mi Calm Calm - 0.00 in   Overcast
5:55 PM 30.2 °F 26.7 °F 30.2 °F 100% 29.65 in 6.0 mi SW 3.5 mph - 0.00 in   Overcast
6:15 PM 30.2 °F 23.4 °F 30.2 °F 100% 29.65 in 8.0 mi SW 6.9 mph - 0.00 in   Overcast
6:35 PM 30.2 °F 23.4 °F 30.2 °F 100% 29.66 in 8.0 mi WSW 6.9 mph - 0.00 in   Overcast
6:55 PM - - - N/A% 29.66 in 10.0 mi WSW 6.9 mph - 0.00 in   Overcast
7:15 PM 32.0 °F 25.6 °F 32.0 °F 100% 29.67 in 10.0 mi WSW 6.9 mph - 0.00 in   Overcast
7:35 PM 30.2 °F 22.6 °F 30.2 °F 100% 29.68 in 10.0 mi SW 8.1 mph - 0.00 in   Mostly Cloudy
7:55 PM 28.4 °F 20.4 °F 28.4 °F 100% 29.68 in 10.0 mi SW 8.1 mph - 0.00 in   Mostly Cloudy
8:15 PM - - - N/A% 29.68 in 9.0 mi SW 8.1 mph - 0.00 in   Partly Cloudy
8:35 PM 23.0 °F 14.7 °F 23.0 °F 100% 29.68 in 8.0 mi SW 6.9 mph - 0.00 in   Clear
8:55 PM 23.0 °F 13.1 °F 23.0 °F 100% 29.68 in 7.0 mi SW 9.2 mph - 0.00 in   Clear
9:15 PM 21.2 °F 10.9 °F 21.2 °F 100% 29.69 in 5.0 mi SW 9.2 mph - 0.00 in   Clear
9:35 PM 21.2 °F 11.7 °F 19.4 °F 93% 29.69 in 7.0 mi SW 8.1 mph - 0.00 in   Clear
9:55 PM 19.4 °F 11.5 °F 17.6 °F 93% 29.69 in 6.0 mi SSW 5.8 mph - 0.00 in   Clear
10:15 PM 17.6 °F 5.0 °F 15.8 °F 93% 29.70 in 8.0 mi SSW 11.5 mph - 0.00 in   Clear
10:35 PM 17.6 °F 7.3 °F 17.6 °F 100% 29.70 in 8.0 mi SW 8.1 mph - 0.00 in   Partly Cloudy
10:55 PM 15.8 °F 5.1 °F 14.0 °F 93% 29.71 in 9.0 mi SW 8.1 mph - 0.00 in   Clear
11:15 PM 17.6 °F 5.7 °F 17.6 °F 100% 29.71 in 9.0 mi SSW 10.4 mph - 0.00 in   Clear
11:35 PM 17.6 °F 5.7 °F 17.6 °F 100% 29.73 in 10.0 mi SSW 10.4 mph - 0.00 in   Clear
11:55 PM 19.4 °F 8.6 °F 17.6 °F 93% 29.74 in 10.0 mi SSW 9.2 mph - 0.00 in   Mostly Cloudy